Погода в Озерном

Россия / Смоленская область     55°34′42″N   32°24′36″E
темп.,
°C
ветер,
м/с
пор.,
м/с
влажн.,
%
обл.,
%
осадки,
мм/ч
давл.,
гПа
погр.,
м
24 октября, вс
вс2400:00+3з41196100 2.4 1010809
03:00+3зсз51196100 3.3 1013845
06:00+2сз51194100 0.3 1015765
09:00+2сз5108485 0.5 1018899
12:00+3сз597354 0.1 10211272
15:00+3сз487099 0.2 10231398
18:00+2сз497772 0.1 1026690
21:000сз39875 0.2 1028440
25 октября, пн
пн2500:00−1зсз26935 0.0 1029201
03:00−1з239312 0.0 103093
06:00−1зюз2590100 0.0 1030172
09:000юз278086 0.0 1030268
12:00+4юз4767100 0.0 1030558
15:00+5юз496510 0.0 1028800
18:00+3юз412775 0.0 1027443
21:00+2юз414815 0.0 1026468
26 октября, вт
вт2600:00+1юз41482100 0.0 1026451
03:00+1юз41381100 0.0 1025412
06:00+1юз41478100 0.0 1024387
09:00+2ююз4147499 0.0 1023440
12:00+5юз51461100 0.0 1022544
15:00+6юз51358100 0.0 1020652
18:00+5ююз41364100 0.0 1020522
21:00+4юз41369100 0.0 1019475
27 октября, ср
ср2700:00+3юз41275100 0.0 1019365
03:00+2ююз31180100 0.0 1018294
06:00+2ююз31182100 0.0 1017294
09:00+3юз41278100 0.0 1016395
12:00+6юз41171100 0.0 1016487
15:00+5зюз41090100 0.7 1016585
18:00+5з31093100 0.1 1017677
21:00+6з41082100 0.2 1018795
28 октября, чт
чт2800:00+6зюз31085100 0.1 1019485
03:00+6юз3992100 0.1 1018297
06:00+5ююз41194100 0.0 1017369
09:00+6юз51389100 0.2 1016583
12:00+7юз51494100 2.2 1014616
15:00+7зюз51394100 4.5 1013800
18:00+9з41296100 0.6 1014684
21:00+9зсз31097100 0.8 1016541